Theta_e
344 345 346 345 346 346 347 347 345 344 343 342 342 341 337 336 331 330 331 337 336 342 343 341 348 351 352 354 354 354 353 354 357 358 361 360 362 356 354 354 357 360 362 363 364 364 364 364 364 364 363 363 362 362 362 362 362 361 361 360 360 362 362 360 359 357 356 356 357 357 358 359 359 359
341 342 343 343 344 345 345 346 346 346 344 342 342 342 341 340 335 334 331 332 339 342 346 344 347 354 352 352 353 353 356 355 356 357 358 360 360 354 351 352 353 354 355 357 359 361 363 364 364 364 363 363 363 362 361 361 361 361 361 360 360 360 360 359 357 355 355 355 356 356 357 358 358 357
338 337 336 339 341 342 343 345 345 346 345 344 344 342 341 340 339 337 336 331 341 342 341 345 348 349 354 352 352 352 354 356 356 356 357 358 359 357 356 353 353 352 352 353 355 359 363 365 365 365 363 362 363 363 363 362 361 361 360 360 360 360 358 356 355 354 354 354 356 356 357 357 358 357
337 336 334 335 337 338 340 341 343 345 345 345 344 343 343 341 341 340 337 333 333 343 346 346 347 351 348 350 350 351 353 354 355 356 356 357 357 359 360 355 352 351 350 350 351 353 358 362 365 365 365 364 363 363 363 363 362 361 361 361 360 360 357 354 353 353 353 353 354 355 355 356 356 356
336 335 334 334 335 336 337 338 340 342 345 345 345 344 344 341 342 340 338 334 334 340 346 345 344 349 348 347 351 350 352 354 354 353 354 355 354 355 358 360 351 349 349 349 349 350 351 355 360 363 364 365 364 364 364 363 363 362 361 360 360 357 354 352 352 352 352 352 353 353 354 355 355 355
334 334 333 333 334 335 336 336 336 338 342 343 342 343 342 341 340 342 337 336 335 334 342 344 346 348 349 346 351 348 350 352 354 353 352 354 354 353 357 360 359 349 349 348 348 348 348 350 354 358 361 363 364 364 363 362 362 360 358 356 354 352 350 351 350 351 352 352 352 352 352 353 353 353
333 332 332 332 332 334 334 335 336 338 339 341 341 341 343 341 341 342 341 337 334 334 337 343 343 345 345 346 346 353 353 354 353 351 351 353 355 356 356 357 358 349 346 347 347 347 346 347 348 351 353 356 359 359 358 357 355 352 350 348 347 346 347 348 347 348 350 351 351 352 352 352 352 352
331 330 329 329 330 333 333 334 336 337 338 339 340 341 342 342 342 342 343 342 339 337 335 341 340 344 344 347 349 352 353 352 351 352 353 355 354 355 356 358 359 354 346 345 346 346 345 345 345 346 347 350 353 355 351 348 347 345 344 344 344 344 345 345 344 344 346 347 348 349 350 350 350 349
327 327 326 327 328 330 332 334 335 336 336 338 339 339 340 341 341 342 343 342 342 339 337 340 343 346 346 347 348 350 348 349 351 352 352 352 353 354 356 355 358 352 349 346 345 345 345 345 344 344 344 344 345 346 346 345 344 343 342 341 341 341 341 341 341 341 341 342 342 342 343 344 344 345
322 322 321 323 325 328 331 333 334 335 335 337 337 337 337 339 340 341 341 342 341 341 340 339 339 344 342 344 344 348 348 345 345 347 349 350 351 351 352 354 354 356 355 355 354 345 344 343 340 342 342 341 341 342 343 344 344 344 343 340 339 339 339 339 339 338 338 338 338 338 339 339 341 342
318 319 319 320 322 325 331 331 332 334 334 334 334 335 336 338 339 338 339 339 339 338 338 339 340 340 344 344 341 346 349 347 344 344 343 345 350 352 350 349 354 355 356 354 352 352 352 350 348 338 334 335 337 338 340 341 343 345 345 341 338 338 338 338 337 337 336 336 335 335 334 335 337 340
316 317 317 318 321 326 331 332 331 333 331 333 333 334 333 334 334 335 336 337 337 337 337 337 337 340 339 342 345 345 345 342 342 344 343 340 343 344 346 349 349 353 353 353 355 352 351 350 348 340 338 338 338 338 338 339 343 346 346 343 339 338 337 337 336 336 335 335 334 333 332 331 331 335
314 315 316 317 321 328 333 335 332 334 334 332 331 332 332 331 332 332 332 332 333 334 335 335 338 337 338 340 341 341 340 339 338 344 344 342 344 345 344 346 349 349 349 351 352 354 355 354 354 353 352 351 344 344 342 345 344 345 344 342 340 338 337 336 335 334 334 334 333 333 332 331 329 329
313 314 315 318 325 329 330 332 333 333 332 332 331 331 330 330 329 330 329 329 330 330 329 332 334 333 334 337 338 337 339 341 343 342 341 338 341 343 342 343 346 351 350 349 349 352 355 354 353 353 351 353 354 352 349 349 348 344 339 338 338 337 336 336 335 334 333 332 332 332 331 331 330 329
312 313 315 317 320 324 327 329 330 331 330 329 329 330 332 332 329 328 327 327 329 328 327 329 331 334 334 336 339 339 338 340 339 340 340 339 339 338 337 335 343 350 350 349 346 348 354 354 351 352 352 353 352 353 353 342 340 340 339 337 336 336 336 335 335 334 334 333 332 331 331 330 330 329
312 313 314 316 319 321 325 326 325 326 328 328 329 329 330 329 329 330 328 327 326 327 327 327 328 331 333 335 338 339 339 338 338 340 341 339 339 337 337 338 337 346 350 347 343 344 350 352 351 350 351 353 354 353 345 337 337 337 337 336 335 335 335 334 334 334 334 333 332 331 331 330 330 329
312 313 314 316 318 321 326 326 324 324 325 329 330 329 328 327 327 326 326 328 329 330 328 328 328 330 332 332 334 335 337 338 336 337 337 338 339 340 340 339 341 346 351 347 344 342 347 349 349 347 350 352 353 353 342 338 337 336 335 335 334 333 333 333 333 333 333 332 332 331 330 329 329 329
313 314 315 315 317 318 320 322 322 323 324 325 325 325 324 324 325 326 326 327 328 330 329 328 326 330 333 331 334 337 338 335 334 334 335 337 336 337 337 340 342 344 349 343 342 340 344 347 347 346 349 351 352 355 345 335 335 335 335 334 333 332 332 332 332 332 332 331 331 329 328 328 328 327
313 314 315 317 316 316 317 319 321 321 321 320 321 321 322 323 324 324 326 327 328 329 329 328 329 329 332 333 334 335 336 335 336 337 335 336 336 337 340 340 341 341 345 344 341 334 342 349 346 347 349 350 351 354 342 333 333 334 335 333 332 331 330 330 330 330 330 330 329 328 327 326 326 325
315 315 317 316 315 314 315 319 320 323 321 316 316 316 318 319 320 322 325 325 328 330 331 331 331 331 332 332 333 334 335 335 336 338 339 340 339 336 334 334 339 338 345 347 341 337 338 344 344 345 350 352 351 353 354 339 334 334 333 333 331 330 329 329 329 329 329 328 328 328 327 325 324 323
314 315 318 316 314 313 313 316 314 317 321 314 313 313 313 315 316 317 319 322 325 327 326 324 325 325 325 326 326 325 328 333 337 336 334 333 336 333 330 332 334 336 343 346 346 341 338 342 344 344 346 348 348 351 353 357 338 331 332 331 330 329 328 328 327 327 327 327 327 327 326 325 323 324
314 314 320 319 314 312 311 312 311 313 317 311 309 310 310 311 311 313 316 319 323 325 325 326 327 328 328 329 330 331 330 333 338 336 331 333 335 332 332 330 333 336 340 343 348 338 338 342 345 341 346 347 349 350 351 353 352 334 327 325 327 327 327 327 326 326 325 325 326 325 324 324 323 332
311 311 315 318 316 314 311 311 310 311 313 309 307 308 307 307 308 311 315 316 319 321 323 326 328 325 325 327 328 329 330 332 334 332 331 333 334 332 333 333 333 331 335 343 349 338 340 340 343 342 337 337 346 350 349 349 351 354 353 347 337 326 325 326 326 325 324 324 324 324 323 323 322 337
309 310 310 312 313 310 310 309 308 309 310 308 307 307 306 306 307 311 315 317 318 317 321 323 324 322 323 323 324 325 326 328 330 328 328 329 329 330 333 334 334 330 333 341 347 341 342 342 340 346 342 334 333 341 344 347 351 352 352 353 352 340 331 329 327 323 321 322 322 321 321 320 322 336
307 308 307 308 311 309 309 308 306 306 308 309 307 306 306 307 309 313 312 314 319 316 319 320 320 319 319 319 320 322 323 324 325 326 325 326 328 328 328 330 333 333 336 342 345 341 336 342 337 341 339 337 337 337 341 343 345 347 350 351 350 352 351 345 338 343 325 320 319 318 318 318 319 330
307 307 307 307 308 308 307 306 305 305 306 307 306 305 307 308 308 309 311 311 312 313 314 315 314 314 314 314 315 317 318 320 322 322 322 325 326 329 330 329 328 330 333 340 338 339 336 337 340 338 339 336 337 338 337 340 344 346 348 350 349 350 350 349 348 346 348 347 341 327 327 318 318 320
307 308 308 308 309 306 303 303 305 305 305 306 304 304 305 307 307 308 307 309 308 309 310 311 310 310 310 310 311 313 314 316 319 320 322 324 326 327 328 331 333 334 337 341 344 342 338 337 340 337 334 335 334 336 336 335 338 346 346 348 348 349 349 349 347 347 348 346 346 330 321 319 318 319
308 307 307 308 305 303 301 303 304 305 306 305 303 303 304 305 306 305 305 306 306 307 307 307 306 307 308 308 309 311 313 315 317 317 320 322 324 325 327 329 334 338 338 338 338 340 339 336 337 338 337 334 331 330 330 336 337 339 340 346 348 350 350 348 348 348 348 347 347 345 338 333 328 325
307 307 305 304 304 304 304 304 305 305 305 304 303 303 303 305 303 303 303 303 304 303 303 304 305 305 306 307 309 312 313 315 316 316 318 320 322 324 326 329 335 333 332 333 335 334 334 334 334 336 337 336 333 333 333 332 334 335 339 339 339 345 348 349 348 347 347 349 349 349 347 345 337 330
307 306 306 306 306 305 305 305 305 305 304 305 305 304 305 301 301 302 301 301 301 301 301 303 303 303 305 305 308 311 312 312 311 312 315 315 318 321 322 326 328 329 330 330 331 331 332 331 331 332 334 336 336 334 335 333 333 336 338 337 338 342 344 346 347 347 347 346 348 348 350 350 348 338
306 305 305 305 305 305 305 305 305 304 305 304 303 302 302 301 301 301 301 300 299 301 300 302 302 303 304 305 307 307 309 310 311 312 314 313 314 317 319 322 319 320 323 325 326 328 330 328 329 331 329 331 335 336 336 336 333 334 336 339 338 332 340 345 347 348 348 348 348 349 350 350 349 348
307 306 306 305 305 306 305 304 304 304 303 303 303 302 302 301 302 302 303 302 300 300 300 300 302 303 302 301 303 305 306 309 310 311 312 312 313 316 317 316 315 315 317 319 321 324 328 325 325 328 331 331 330 334 337 336 334 334 334 337 339 340 341 340 340 344 347 347 347 346 348 346 346 347
306 305 304 304 303 303 303 302 302 302 302 302 302 302 301 301 301 300 299 298 298 300 300 299 299 299 299 299 301 303 304 306 307 308 309 310 311 314 315 314 314 313 313 314 317 320 323 322 324 326 328 330 332 334 331 329 330 330 330 333 335 335 338 340 339 338 340 341 340 341 341 344 345 346
305 303 302 302 302 302 302 301 301 301 301 301 300 300 301 301 301 300 299 298 298 299 299 299 299 299 299 298 299 301 302 304 305 306 308 308 309 310 312 312 312 313 313 313 315 317 318 320 321 324 326 327 332 329 326 321 320 323 325 329 331 330 333 335 337 338 338 337 337 337 337 340 343 345
304 303 302 302 302 302 302 302 301 301 301 301 300 300 300 300 300 300 298 297 299 298 298 298 298 299 297 297 299 299 301 302 302 303 306 307 307 308 309 309 310 311 312 313 313 315 317 316 317 317 320 321 323 327 319 323 320 320 323 327 328 327 329 331 332 334 336 337 338 335 336 338 340 344
304 304 303 302 302 302 301 301 303 302 301 300 300 299 299 299 299 298 297 298 298 297 297 296 297 297 297 297 298 299 300 301 301 302 303 303 304 307 307 309 310 310 310 310 313 314 315 315 314 312 311 312 313 315 319 318 317 319 321 323 325 325 327 328 331 332 333 333 335 333 331 332 335 340
304 304 304 303 303 302 302 302 302 301 301 300 300 299 298 298 298 298 298 299 298 297 296 295 295 296 296 296 297 298 299 299 299 301 302 302 303 304 304 306 308 309 308 309 312 312 313 312 312 310 309 308 308 308 310 317 316 318 323 321 322 324 325 326 327 327 329 329 331 332 331 332 332 335
305 304 304 303 303 302 303 303 302 301 301 301 300 299 299 299 299 298 299 298 297 296 295 294 295 296 295 295 295 295 297 298 299 299 301 301 301 302 303 304 304 306 306 308 310 311 311 311 310 310 310 307 305 306 306 312 314 317 318 320 320 322 324 323 322 321 323 327 327 329 330 330 331 334
304 303 303 302 302 302 302 303 302 301 300 300 300 299 298 298 298 298 298 297 297 296 295 294 294 294 294 293 295 295 295 296 297 298 299 300 301 301 302 303 303 305 305 306 307 308 309 308 308 308 309 308 307 308 309 309 310 316 318 315 320 322 321 320 319 319 320 321 324 328 329 333 331 327
304 304 304 303 302 302 302 302 301 301 300 300 299 300 298 297 297 297 297 297 296 296 295 294 294 293 293 293 293 294 295 296 297 298 299 299 300 302 301 303 303 303 303 304 304 305 306 306 307 308 309 310 312 314 315 315 315 317 319 319 315 319 321 320 318 317 318 321 323 322 322 326 326 331
304 303 302 302 302 302 301 301 300 301 300 299 299 300 299 298 297 297 297 296 296 293 293 293 292 292 292 292 293 293 294 295 296 298 299 298 300 301 302 302 302 302 302 303 303 303 304 305 309 311 312 313 314 318 316 312 310 311 313 317 315 316 316 317 320 319 318 320 321 320 320 321 323 326
304 302 302 302 302 302 301 301 301 300 299 299 299 299 298 298 297 299 296 296 293 293 292 292 291 292 292 292 292 294 293 294 295 296 297 297 297 299 300 301 300 301 301 301 301 303 305 308 309 310 310 311 312 310 308 309 309 311 312 315 319 316 316 315 314 314 320 319 319 319 320 322 324 322
304 302 302 302 303 303 302 302 301 300 299 299 299 298 298 297 296 295 293 292 292 292 291 291 291 291 291 292 293 294 293 294 295 295 295 296 297 297 298 299 300 301 302 302 303 304 305 307 308 308 308 309 309 310 308 309 310 312 313 314 315 318 319 314 314 313 313 312 313 318 324 322 317 315
303 303 302 302 302 302 302 301 301 300 299 298 298 297 297 296 295 295 293 292 291 291 291 291 290 291 291 292 293 293 294 294 295 294 295 296 297 298 298 299 301 302 302 302 302 303 304 305 306 307 306 306 308 308 307 309 309 310 310 311 313 313 314 315 317 315 315 316 314 313 313 314 318 318
303 303 302 302 302 302 302 302 301 299 298 298 297 296 296 295 295 294 293 292 292 291 291 291 290 291 291 292 292 292 293 296 295 295 296 296 297 297 298 299 300 301 301 301 301 302 303 304 305 306 306 307 308 308 308 310 310 310 309 309 309 310 311 313 313 314 315 318 317 314 313 313 314 314
Wind_Speed
5 5 6 4 5 6 4 3 4 4 4 4 4 2 3 3 5 3 4 4 4 1 4 2 2 1 1 1 1 1 4 7 8 8 9 9 8 12 18 19 20 20 21 21 21 22 23 24 26 26 24 24 25 25 25 25 25 25 24 24 23 22 22 21 18 17 16 16 17 17 17 16 16 16
5 5 5 5 5 5 5 5 4 4 4 4 4 4 3 4 6 5 5 6 3 3 2 3 3 1 1 1 2 1 1 2 6 8 8 9 10 12 15 18 19 20 20 20 20 21 22 23 24 25 25 24 24 24 25 25 25 25 25 25 24 23 23 21 18 17 17 17 17 17 17 17 16 16
5 5 6 5 4 5 4 4 5 4 5 5 4 4 5 4 6 6 6 6 2 2 2 2 1 2 2 3 4 4 3 2 2 5 7 9 11 13 12 16 18 19 20 20 21 21 22 23 24 25 25 25 24 24 24 25 25 24 24 24 24 24 23 20 19 18 18 18 18 18 18 17 17 17
5 6 6 6 5 6 5 4 4 5 5 5 5 4 4 5 5 5 5 7 9 2 3 4 5 6 8 8 7 6 5 4 4 3 3 6 7 8 8 14 17 18 20 20 20 21 22 23 23 24 25 24 24 24 24 24 24 24 24 23 24 24 22 20 19 19 18 18 18 18 18 18 18 17
6 6 6 6 7 6 5 5 4 4 4 5 5 4 4 4 4 4 5 8 10 6 3 5 5 2 3 7 5 7 6 5 4 4 3 3 4 6 7 8 14 18 19 20 20 21 21 22 22 23 23 24 24 24 24 24 24 24 23 22 22 21 20 20 19 19 18 18 18 18 18 19 18 18
8 7 8 7 8 7 6 5 5 5 5 5 5 5 4 4 6 4 4 4 5 8 5 5 5 4 5 6 5 8 8 7 4 4 4 3 3 4 4 6 6 15 18 19 20 21 21 21 22 22 22 23 24 24 23 23 23 23 22 22 22 21 20 19 20 19 19 19 19 19 19 19 19 19
8 8 7 7 8 8 9 8 6 6 7 6 6 6 5 5 5 5 5 5 5 6 7 5 6 5 4 5 6 5 5 5 4 5 6 5 4 3 3 4 4 7 15 18 19 20 20 20 21 21 22 22 22 22 22 22 22 22 21 21 21 21 20 19 19 20 20 20 19 20 20 20 19 19
7 7 7 7 8 9 9 8 8 7 7 7 7 6 5 5 6 5 6 5 5 5 6 4 6 4 4 4 5 5 4 5 5 4 5 4 5 4 4 4 4 3 8 13 16 18 19 20 20 21 21 21 21 21 21 21 20 21 21 21 21 21 21 21 20 19 20 20 20 20 20 20 20 20
9 8 8 8 8 8 8 9 8 8 8 7 7 6 5 6 6 5 5 6 6 6 7 7 6 5 5 5 4 4 6 5 5 4 4 4 4 4 4 4 4 4 6 8 13 15 17 18 19 20 20 21 21 21 21 21 20 20 21 21 21 21 21 21 21 20 20 20 20 20 20 20 20 20
8 8 9 9 8 8 8 8 7 7 8 6 6 7 6 6 6 5 5 5 6 6 6 7 7 5 6 5 5 4 4 5 6 6 5 4 3 4 4 4 4 4 4 4 5 9 12 15 16 16 17 19 20 21 21 21 21 21 21 21 22 22 22 22 22 21 21 21 21 20 20 20 20 20
9 9 8 8 9 8 8 8 8 7 6 6 7 6 6 6 6 6 6 6 6 6 7 6 5 5 4 4 6 3 3 5 5 5 7 7 3 1 2 6 3 4 5 7 8 7 6 8 10 14 17 17 18 19 19 20 20 21 21 21 21 22 22 22 22 22 22 22 21 21 21 20 20 20
8 8 8 8 8 9 8 7 6 7 7 6 5 5 6 7 7 6 6 6 6 6 6 6 5 4 4 5 4 4 4 4 3 5 5 7 7 3 5 6 6 3 4 5 5 6 7 8 10 12 13 17 18 18 18 19 20 21 20 20 20 20 21 21 21 21 21 21 22 22 21 21 21 21
8 8 8 7 8 11 14 15 9 10 11 7 6 6 6 7 6 6 6 5 5 7 6 6 4 5 5 2 3 4 5 4 6 2 2 4 4 3 5 5 5 6 6 5 5 5 5 5 4 5 6 8 14 15 19 16 21 22 20 20 20 20 21 21 21 21 21 22 22 22 22 21 21 21
8 9 8 8 14 14 14 15 15 15 15 16 11 8 7 7 7 6 6 6 5 5 7 8 7 7 6 6 5 5 5 6 4 5 5 7 5 3 5 7 4 4 5 5 6 6 4 5 5 5 7 6 7 7 9 11 13 16 21 21 21 21 21 21 21 21 22 22 22 22 22 22 22 21
9 8 9 8 10 12 11 11 15 16 17 16 15 13 11 8 7 6 7 7 6 6 5 6 7 7 7 6 5 6 6 5 6 5 6 6 5 5 5 6 3 3 4 5 6 6 4 5 7 6 7 7 7 8 9 13 16 17 18 20 21 21 21 21 21 22 22 22 22 22 22 21 21 21
7 7 7 7 6 7 10 10 9 11 14 14 14 14 12 12 11 8 6 6 6 6 6 6 6 7 7 6 4 4 4 5 6 5 5 6 6 7 7 5 5 1 3 3 5 5 3 5 7 7 7 7 8 9 11 14 15 18 19 19 20 21 21 22 21 22 22 22 22 22 22 22 22 22
7 7 7 6 6 5 13 9 9 8 9 15 15 13 13 12 11 10 9 8 7 6 6 6 7 7 6 6 5 6 5 5 6 6 5 5 5 5 5 7 5 3 2 3 5 6 3 5 6 8 7 7 7 8 10 13 15 17 18 19 20 20 21 22 23 22 23 23 23 23 22 22 22 21
8 8 7 6 6 8 8 8 10 10 10 9 8 8 8 7 9 11 11 10 10 8 5 6 7 7 7 6 5 6 6 6 6 6 7 7 6 6 7 6 6 5 2 4 4 5 4 5 6 8 6 5 7 8 10 14 16 17 18 18 19 20 21 21 22 23 23 23 23 22 21 21 21 22
7 8 7 7 7 8 8 10 14 12 7 8 6 7 7 8 8 8 7 7 7 7 7 7 8 8 7 6 7 7 5 5 5 6 8 9 9 8 8 9 9 8 5 6 4 6 3 3 6 8 6 5 7 7 8 13 15 17 17 18 18 19 20 21 21 22 22 21 21 21 21 22 22 22
7 8 6 6 7 8 8 16 20 18 9 8 8 7 7 8 8 6 8 12 12 10 8 8 8 8 8 9 9 8 6 6 5 5 5 4 5 6 7 7 5 5 2 5 7 5 6 5 6 7 5 4 6 5 6 10 15 16 17 17 18 19 19 20 20 20 20 20 20 20 20 20 21 21
8 8 8 6 7 8 10 17 19 19 13 8 9 9 9 8 7 7 8 12 13 11 12 13 11 11 11 10 10 9 10 8 7 5 5 5 4 5 6 6 6 5 1 4 5 6 7 4 5 6 5 5 6 7 7 6 10 15 15 17 17 17 18 18 19 19 18 17 16 18 19 20 20 20
7 10 18 14 9 9 11 18 18 19 12 8 9 9 9 9 9 9 10 8 8 12 12 12 10 7 9 8 7 9 12 11 8 5 5 5 4 5 5 6 6 6 4 4 5 6 6 4 3 6 5 5 5 7 7 7 6 11 13 16 17 16 17 18 18 17 17 18 20 19 20 20 17 11
7 8 11 19 16 13 14 16 16 18 14 8 9 9 8 9 9 9 10 9 9 8 8 7 6 7 10 8 7 8 12 13 12 7 7 7 5 6 5 7 6 6 3 2 3 4 4 5 3 5 5 4 3 5 6 7 6 5 4 6 9 14 16 17 17 17 17 18 18 18 19 19 12 8
7 7 8 11 17 16 15 13 15 14 17 10 8 8 8 10 10 10 9 9 9 8 8 8 7 7 6 7 7 7 8 7 9 9 7 7 7 8 7 6 6 7 5 1 3 4 5 4 4 3 5 6 4 2 2 3 3 4 4 4 4 8 11 12 11 14 14 15 17 18 17 15 12 7
7 7 7 7 15 16 14 12 14 15 14 16 9 9 9 9 12 11 7 9 12 8 8 8 7 7 7 8 7 7 7 8 8 8 8 7 7 7 8 7 6 6 7 4 3 4 4 2 5 1 3 4 5 6 3 4 3 3 3 4 5 4 3 4 5 6 9 13 14 15 14 14 16 12
7 7 7 7 13 13 12 11 13 15 14 17 11 12 13 13 16 10 8 7 7 7 7 7 7 8 9 9 9 9 8 8 9 9 8 7 7 7 5 6 8 7 6 5 4 5 6 4 5 6 4 5 7 7 8 6 4 4 4 3 4 5 4 4 4 4 4 4 5 9 11 14 15 18
7 6 6 8 15 12 13 12 12 14 15 13 12 16 16 14 16 11 8 8 8 8 7 7 8 8 9 9 9 9 9 9 9 9 8 8 8 8 8 7 6 6 6 5 5 4 5 4 3 5 5 5 6 6 5 6 4 1 3 4 4 5 4 3 5 5 5 5 4 7 9 8 14 17
7 6 6 7 10 12 13 12 12 12 15 13 16 16 17 16 14 9 9 9 9 8 8 8 8 8 8 8 8 9 9 8 9 9 8 8 8 8 7 8 8 6 6 7 8 6 6 7 7 6 6 6 7 8 9 7 6 6 6 4 4 4 4 5 6 5 4 4 4 4 4 3 4 7
8 9 10 11 10 12 11 12 11 11 14 16 16 17 17 15 9 10 9 9 8 9 9 8 8 8 8 8 8 8 8 9 7 9 8 9 8 8 7 7 4 5 5 5 7 7 7 7 6 5 5 6 7 8 7 9 8 7 4 6 6 3 3 4 6 6 5 4 5 6 7 5 5 6
13 12 11 12 10 11 12 10 9 9 11 16 18 19 17 11 10 10 9 9 9 9 9 8 8 8 8 8 8 8 7 7 8 9 9 9 8 9 9 8 6 6 6 7 7 8 8 8 7 6 5 4 6 7 6 8 9 8 5 6 7 7 6 6 6 6 6 7 6 6 7 6 6 7
8 10 11 9 10 8 12 12 11 10 12 10 11 10 10 10 9 9 9 9 8 8 8 8 8 8 8 8 8 8 7 6 7 8 8 8 9 9 9 6 7 7 8 8 8 9 8 9 8 7 6 5 5 5 6 6 8 9 8 6 6 7 3 3 4 5 5 5 5 5 4 5 6 7
7 7 7 7 6 6 7 7 7 7 7 9 9 9 8 8 8 10 11 9 7 7 7 7 7 7 8 8 8 8 7 7 7 8 8 8 8 8 7 6 7 7 7 8 8 9 10 9 9 7 5 5 4 4 4 5 6 6 9 6 5 6 6 7 8 6 5 4 4 5 5 6 7 7
5 5 5 5 6 6 7 7 7 7 7 7 8 9 9 8 8 9 9 10 9 9 8 8 8 8 8 8 8 8 7 7 7 9 7 7 7 7 6 6 6 8 9 9 9 8 9 9 9 8 6 7 4 3 4 4 6 8 8 6 5 4 4 5 6 6 6 5 7 6 7 6 6 7
3 4 5 5 6 6 6 7 7 7 7 7 7 7 9 8 8 9 8 9 8 9 8 8 8 8 8 8 9 8 8 7 7 8 9 7 7 7 6 7 7 6 8 8 8 9 9 10 9 7 6 6 5 7 6 6 4 4 4 5 6 6 6 6 6 6 6 5 5 6 6 6 6 7
3 4 5 6 6 6 6 6 6 6 6 7 7 7 7 7 8 9 8 9 8 8 8 8 7 7 7 8 9 9 9 8 8 8 7 7 6 6 6 7 7 8 8 7 8 8 8 10 10 9 7 6 4 2 7 8 5 5 5 4 5 5 6 6 6 6 6 5 4 5 6 6 7 5
3 3 4 5 5 5 6 6 5 5 5 6 6 8 8 7 8 8 8 9 7 8 8 8 8 7 8 7 8 8 8 9 8 9 9 8 8 7 6 6 6 7 7 7 7 8 8 8 9 9 9 9 7 5 1 9 8 5 6 6 5 5 6 6 6 5 5 5 4 5 5 6 6 5
3 3 4 4 4 4 4 4 4 4 4 5 5 6 7 7 7 7 7 7 7 7 8 7 7 7 7 7 7 8 8 8 8 8 9 9 8 8 7 7 7 6 7 7 6 7 7 7 8 9 9 8 8 9 8 6 11 9 4 7 7 6 6 6 6 5 4 5 5 5 5 5 6 5
3 3 3 4 4 4 4 3 3 3 3 4 5 5 6 5 6 6 7 6 7 7 7 7 7 7 7 7 7 8 8 7 7 8 8 8 9 8 8 8 8 7 8 7 6 6 7 6 7 7 7 8 8 9 11 9 8 8 7 6 7 8 7 6 5 6 6 5 5 5 5 6 7 6
3 3 3 4 4 4 4 3 2 2 3 4 5 5 6 6 6 8 8 8 7 7 7 7 7 7 8 7 7 7 7 8 8 8 8 8 8 8 8 8 8 8 8 8 7 7 7 7 7 7 7 7 8 8 9 10 8 9 11 13 7 7 6 6 6 6 6 7 6 6 6 6 9 12
3 3 3 3 4 4 3 3 2 2 3 3 4 6 5 6 6 9 11 10 8 7 7 7 9 8 7 8 8 7 6 7 7 7 7 7 8 8 8 8 8 9 9 9 9 8 7 8 8 8 9 8 8 8 7 8 7 6 7 8 5 4 5 6 6 6 6 5 6 7 9 7 7 5
3 3 3 3 3 3 3 2 1 1 2 2 3 5 5 5 6 9 9 9 9 9 8 8 9 9 8 8 8 8 8 7 7 7 7 7 8 8 9 9 7 8 9 9 9 9 9 9 12 18 13 8 7 7 5 5 6 5 6 7 9 10 6 3 5 5 5 7 6 7 8 7 8 8
3 3 3 3 3 3 3 2 1 1 2 3 4 5 5 7 8 12 10 10 9 9 9 9 9 9 9 8 8 8 7 7 7 7 7 7 8 8 9 8 8 9 9 9 9 9 10 10 11 10 7 7 6 7 8 7 7 6 6 6 6 7 10 11 8 5 5 6 5 6 5 5 5 7
3 3 3 3 3 3 2 1 0 1 2 3 4 5 6 9 8 9 9 9 9 9 9 9 9 8 9 8 8 7 7 7 7 7 7 7 7 8 8 8 8 8 9 9 8 9 9 9 9 9 8 6 5 5 7 8 7 6 6 5 6 6 7 9 12 13 8 7 9 7 5 5 6 6
3 3 3 3 3 3 2 1 0 1 2 3 4 4 6 8 9 8 8 8 9 9 9 9 9 8 9 9 8 8 7 7 7 7 7 7 7 7 7 8 8 9 9 9 9 8 9 9 8 8 7 7 7 6 7 7 7 7 7 6 7 6 7 6 6 9 10 2 6 8 10 10 10 13
3 3 3 3 3 3 2 1 0 0 1 2 3 4 7 7 8 8 8 8 8 9 9 9 9 9 8 8 8 8 8 8 8 7 7 7 7 7 7 8 8 8 9 9 8 9 9 9 8 7 6 7 6 6 6 6 6 6 6 7 8 8 7 7 6 7 6 8 4 4 7 9 11 12
Wind_Direction
346 347 343 337 322 334 322 304 308 305 289 263 263 269 269 279 279 293 280 269 277 218 206 247 316 257 186 231 330 284 251 245 233 224 219 223 223 213 211 212 213 213 215 218 220 220 221 222 223 223 220 220 224 226 227 226 226 225 225 225 224 224 226 229 228 224 220 215 216 218 221 221 221 224
355 352 349 344 338 337 339 333 319 317 306 297 283 264 237 240 256 256 274 280 231 268 251 218 260 329 307 342 344 353 289 299 265 238 222 222 226 218 210 211 212 212 213 214 216 217 217 218 219 222 224 222 222 225 228 228 228 228 227 226 226 226 228 228 227 225 222 220 218 219 221 224 225 225
356 352 352 346 340 339 334 333 336 323 316 314 294 270 248 238 246 262 261 272 256 209 254 276 287 318 334 339 328 318 320 280 276 262 247 232 229 223 215 211 212 212 212 213 214 216 216 216 216 218 221 223 222 223 225 228 228 228 228 228 227 227 227 227 225 223 222 220 220 221 223 225 226 227
352 350 349 345 341 340 336 341 341 337 327 316 308 304 284 260 238 244 256 264 270 263 281 279 286 318 318 312 307 305 300 298 288 275 263 264 255 229 229 214 213 213 214 213 215 216 217 217 216 217 218 219 220 220 222 223 226 227 227 229 229 229 228 227 225 223 223 221 220 221 222 224 226 228
352 353 343 338 340 339 341 339 335 331 322 322 325 321 312 303 287 280 273 267 274 276 231 264 277 249 264 290 301 306 302 295 299 294 269 265 257 248 234 227 211 214 214 215 216 217 218 218 218 218 218 218 219 220 221 222 222 224 224 224 227 228 226 226 226 225 225 224 223 223 224 225 226 227
355 350 352 347 340 341 338 338 343 335 329 327 330 327 316 304 296 268 260 255 271 287 295 282 273 261 201 258 260 266 285 292 295 300 303 288 264 252 260 246 230 207 215 216 217 219 219 220 220 220 219 219 219 220 221 221 220 220 220 220 221 223 224 223 223 225 225 224 224 224 225 226 227 227
355 357 354 349 347 350 348 352 345 345 342 335 335 330 318 310 292 288 250 255 264 262 278 273 283 268 215 220 260 255 258 270 286 290 287 287 281 273 253 253 257 213 215 217 218 220 221 221 222 222 221 221 221 221 222 221 221 220 219 219 219 220 221 222 221 222 223 224 223 223 223 225 226 227
359 355 351 352 347 347 350 352 355 351 343 341 341 339 329 321 320 303 291 267 260 282 289 288 287 293 281 245 244 262 260 263 268 258 272 266 272 272 267 256 253 230 214 222 224 223 222 222 223 223 224 223 223 223 223 222 221 219 218 218 219 219 219 221 221 222 223 223 224 223 223 224 225 226
359 356 353 344 344 342 342 353 355 355 349 342 350 349 339 332 330 323 308 296 285 284 279 289 294 291 273 263 259 246 272 271 266 249 249 265 267 269 269 276 258 247 228 224 226 230 230 229 226 224 224 224 225 225 224 223 222 221 219 218 218 219 219 219 220 220 222 224 225 226 225 224 225 225
355 355 349 345 340 336 335 345 351 358 2 352 4 8 354 340 331 322 319 310 301 292 296 300 303 298 298 296 276 253 243 269 284 289 282 265 254 267 278 257 260 260 243 227 211 220 229 231 233 235 234 230 228 227 226 224 222 222 221 219 218 218 219 219 219 219 220 221 223 225 226 225 225 225
352 350 348 342 334 325 333 342 347 354 2 4 9 7 353 346 338 336 333 324 311 305 298 295 291 295 287 280 293 282 264 271 265 276 292 289 254 199 292 295 263 240 248 242 230 227 210 212 220 223 229 233 234 235 234 232 228 226 224 223 222 221 220 220 220 220 220 220 221 223 225 226 226 226
345 342 337 333 326 318 331 340 346 351 359 3 359 3 356 353 342 342 338 336 329 317 314 304 308 296 299 303 281 285 281 276 247 225 250 273 279 257 263 250 264 243 237 247 241 227 223 220 219 220 221 225 228 230 233 234 234 232 229 226 225 225 224 223 222 222 222 223 222 222 223 225 227 228
341 336 333 330 326 332 338 345 353 7 8 13 354 353 351 351 346 336 342 337 338 331 318 308 300 304 308 302 304 303 298 273 282 296 221 269 284 283 275 270 233 242 248 248 243 239 219 217 208 211 217 220 218 226 225 230 229 231 231 229 227 225 225 225 224 223 223 223 224 224 224 224 225 228
343 333 327 323 330 338 339 345 353 358 3 2 356 348 351 348 343 337 333 332 330 328 329 325 321 311 308 317 320 306 299 297 295 286 270 268 271 264 258 275 252 211 225 244 246 240 206 208 218 209 228 227 201 221 213 220 220 221 224 228 228 226 224 224 224 224 225 224 224 225 225 225 225 226
345 332 325 319 329 334 335 352 355 355 351 345 340 337 338 340 335 323 320 317 320 322 316 317 315 308 306 305 308 302 305 305 295 282 282 278 276 266 280 288 300 204 201 224 249 253 197 202 228 224 227 221 212 219 218 211 213 220 219 221 224 226 225 223 223 224 225 226 226 226 226 226 227 226
329 325 322 323 323 327 344 360 353 348 342 336 330 330 336 339 334 329 318 311 312 317 317 314 311 311 305 303 287 293 321 329 318 314 299 289 283 285 274 260 259 256 201 206 240 254 200 201 227 234 227 221 219 226 225 209 207 216 219 219 220 222 224 224 223 223 224 225 226 226 226 226 226 226
322 321 321 324 326 331 360 358 350 341 333 333 331 336 340 339 338 338 334 325 313 309 299 303 300 302 329 341 346 340 324 324 310 310 300 297 295 277 268 261 270 270 183 225 237 255 221 188 225 240 234 232 229 234 229 219 213 217 218 219 220 220 221 222 223 223 224 224 225 225 225 226 227 227
324 322 328 330 351 11 356 355 352 343 345 345 342 345 341 331 338 344 342 342 339 332 317 308 298 301 321 313 302 308 319 315 312 313 303 306 294 289 281 289 277 273 290 274 301 275 253 207 232 243 240 211 234 237 228 214 217 219 220 221 221 222 223 223 224 225 225 225 225 226 226 226 227 226
327 327 331 13 19 10 2 358 357 349 14 357 354 341 331 326 337 335 338 343 333 332 328 313 300 294 293 288 295 300 299 294 293 290 294 297 294 289 288 281 271 273 242 244 246 265 268 226 240 253 247 221 230 235 231 213 216 219 221 221 221 221 224 225 225 226 226 226 225 225 224 223 225 226
332 328 6 27 26 14 6 5 2 355 11 0 355 346 338 334 336 333 338 328 322 316 304 305 304 301 295 291 291 292 292 289 274 286 289 290 288 300 301 290 291 284 208 210 231 252 257 224 237 253 257 244 249 232 236 207 213 217 220 221 221 221 223 225 226 225 224 223 223 225 224 224 225 226
338 338 15 50 31 22 15 11 7 360 11 5 0 349 342 337 333 332 335 328 315 311 313 301 286 279 280 283 287 288 290 288 287 283 290 290 297 298 290 288 294 287 207 223 222 248 265 232 232 262 252 254 252 255 244 234 211 217 220 221 222 222 222 224 225 224 222 220 222 227 228 227 224 224
348 359 2 33 34 28 22 14 10 7 14 12 3 352 349 345 341 335 337 331 333 331 321 309 310 340 344 349 356 13 360 357 5 320 293 290 284 279 268 284 292 296 275 258 223 249 252 259 226 266 272 259 235 240 251 242 228 213 222 223 222 222 221 223 224 221 216 212 217 216 221 225 224 222
10 2 1 18 27 24 22 8 7 10 16 17 7 358 354 349 339 331 329 331 333 338 334 337 1 13 4 5 10 13 6 15 17 10 353 340 301 280 275 281 294 296 287 231 185 249 274 274 229 238 283 270 212 225 230 238 237 227 194 221 227 228 224 224 222 219 216 216 221 220 219 222 204 219
9 9 16 12 21 15 11 7 7 2 12 18 9 360 3 355 344 331 329 333 340 338 338 330 2 7 1 356 5 10 7 9 9 1 352 343 342 336 319 296 282 276 278 199 170 257 276 273 276 199 244 280 286 342 346 287 254 255 251 238 232 229 226 238 243 236 227 216 217 220 219 215 185 201
12 16 15 11 17 9 1 2 10 7 9 18 14 7 1 356 342 344 340 337 347 341 346 348 2 1 1 4 2 5 6 3 355 349 346 342 338 336 331 321 301 287 283 288 158 249 275 289 286 243 246 239 258 278 264 266 263 255 240 233 244 247 221 215 222 235 221 230 233 231 226 210 190 197
19 18 20 15 16 5 4 4 14 13 12 20 18 3 351 354 1 4 356 354 353 352 356 2 5 5 4 3 1 0 359 353 347 345 334 333 333 325 317 313 316 320 313 338 321 292 284 269 262 267 262 261 269 257 275 263 250 251 245 240 245 253 238 246 221 228 228 216 213 218 226 215 199 204
12 16 13 18 18 6 6 4 14 19 15 22 11 4 3 8 8 8 10 8 5 5 1 7 10 7 5 359 357 354 352 344 346 340 330 330 333 326 319 305 287 283 302 314 311 280 270 268 280 275 271 267 279 292 282 286 280 182 252 242 246 247 239 230 233 237 225 221 235 207 221 211 205 210
3 7 9 4 12 12 8 7 14 21 22 19 14 13 11 13 14 14 13 15 13 8 8 8 8 3 359 352 349 349 344 341 340 335 335 336 331 324 313 311 308 309 340 351 345 329 300 279 278 268 270 271 275 276 284 272 270 272 272 266 258 248 244 237 243 247 235 223 222 191 153 164 194 205
8 5 9 1 23 17 17 13 17 23 23 21 21 20 18 18 19 16 16 12 11 12 10 6 0 355 352 346 339 333 337 333 339 346 345 342 333 327 322 305 317 8 20 9 8 5 0 352 333 321 271 252 257 259 257 269 280 279 279 297 282 248 246 240 243 245 243 226 235 234 229 205 188 186
10 16 21 14 24 26 25 23 25 26 23 25 26 24 22 19 18 16 14 11 13 11 3 4 359 351 344 341 334 335 338 342 357 351 350 349 341 347 350 345 359 4 17 12 10 3 3 0 345 328 326 290 244 250 252 268 272 271 259 255 271 286 257 245 240 240 241 242 237 241 243 226 209 175
10 22 27 22 16 27 28 30 27 24 21 21 21 20 20 20 19 18 18 14 9 7 1 355 353 348 343 339 342 350 346 349 354 350 353 356 347 351 348 346 358 356 357 3 5 4 2 358 348 342 336 322 296 266 266 260 265 273 272 256 252 265 281 284 260 252 247 245 245 243 240 235 235 219
4 10 5 13 15 13 18 19 16 17 21 22 18 18 18 19 19 18 16 18 16 10 358 344 343 347 346 350 348 347 346 351 356 349 351 353 342 346 337 4 8 355 347 352 354 358 6 3 349 336 317 309 307 308 282 258 260 269 273 268 255 258 267 263 264 255 249 254 254 240 236 242 243 235
353 352 357 4 11 12 14 14 14 14 13 17 14 12 14 7 10 11 12 10 4 358 356 355 351 350 349 353 348 348 342 349 351 348 350 350 342 342 352 14 4 360 358 353 352 355 360 352 343 336 322 316 331 13 12 357 12 359 348 344 332 327 320 312 298 289 279 262 265 270 261 244 238 240
349 348 344 360 0 8 359 11 12 13 10 10 9 9 10 10 11 12 10 7 359 358 355 351 348 351 350 356 355 353 349 343 349 347 356 348 345 347 350 4 6 359 359 353 352 357 352 351 345 341 346 341 36 60 65 66 8 351 338 331 353 351 347 339 333 328 320 301 291 281 271 266 246 241
352 341 347 354 356 2 358 6 8 9 8 11 6 4 3 10 8 6 6 1 351 356 353 352 349 349 351 353 356 355 353 351 349 348 352 352 344 355 347 1 359 359 355 348 354 0 355 354 353 353 356 6 356 73 60 50 11 349 337 354 3 344 341 340 335 332 322 305 294 286 289 275 269 252
333 334 333 338 348 352 0 2 3 8 9 6 2 8 4 5 6 2 360 348 341 352 353 350 349 350 350 348 353 353 353 353 356 355 356 359 351 350 347 348 355 352 352 352 347 357 356 359 3 4 358 350 352 345 342 34 20 345 338 343 347 339 331 326 323 316 319 324 326 324 307 301 308 299
309 328 328 334 342 348 347 354 357 7 9 5 4 6 6 359 355 352 340 332 348 354 353 346 345 346 346 347 346 352 353 356 356 357 359 359 357 354 351 347 350 349 349 344 340 352 356 360 5 9 1 355 350 334 329 6 339 331 339 339 330 333 330 328 327 325 327 320 313 312 305 302 294 290
329 336 345 349 350 344 344 354 0 9 5 6 2 358 353 348 338 335 333 344 351 348 349 347 347 347 347 349 349 350 352 352 354 357 0 1 0 0 357 350 348 346 339 332 343 350 350 349 0 359 1 352 338 333 327 338 335 326 335 333 318 323 334 335 332 332 322 321 301 300 301 291 281 284
9 1 4 354 355 345 345 349 359 14 6 2 0 355 344 340 340 347 348 348 346 345 341 345 350 349 349 348 349 347 348 349 352 355 356 360 358 357 356 354 349 346 340 338 341 348 346 352 351 348 348 335 327 311 310 309 307 298 308 308 305 314 336 341 329 324 323 320 315 314 289 276 278 269
7 0 355 1 352 345 348 347 3 23 17 4 353 353 344 343 340 348 350 349 342 339 335 345 351 349 350 351 348 344 345 349 348 349 351 351 350 353 353 351 351 349 346 345 345 342 342 343 337 336 327 315 296 293 285 284 274 269 280 305 310 294 318 336 329 326 317 315 317 317 314 315 309 305
349 344 347 352 339 345 347 347 354 10 2 350 336 342 342 329 335 346 344 342 343 342 342 347 350 351 350 349 349 348 344 344 346 345 348 347 346 349 350 351 351 354 349 345 342 337 336 331 321 320 316 303 298 292 306 327 329 319 317 310 319 323 311 261 307 314 303 305 309 306 302 302 303 306
331 335 340 352 336 338 346 353 354 338 352 345 340 337 333 337 337 340 341 345 346 345 345 345 347 348 351 351 347 347 344 341 341 342 343 343 342 344 347 350 348 348 349 344 338 327 320 319 320 319 316 317 324 344 344 337 330 318 307 308 310 312 323 326 312 265 268 301 306 304 302 306 323 307
333 334 338 335 322 348 351 350 307 347 356 344 343 335 337 342 338 343 346 344 345 345 345 343 344 343 345 346 344 342 340 338 339 338 337 335 339 340 340 340 336 337 337 335 325 319 321 325 328 329 328 323 329 327 332 338 332 314 314 319 321 318 318 318 321 322 314 258 246 233 273 297 313 293
319 321 327 319 322 328 317 273 240 11 352 352 345 338 343 346 342 344 344 341 341 342 340 340 339 339 338 339 340 340 341 337 338 336 334 332 333 333 333 333 332 333 336 339 330 329 330 330 332 337 336 338 333 332 338 333 335 337 336 325 320 326 321 328 327 320 320 291 227 240 245 245 247 261
310 310 312 316 313 315 305 249 233 10 355 343 349 353 351 346 343 342 340 339 338 338 336 336 336 334 335 335 337 338 335 336 339 333 331 330 331 330 331 331 332 335 337 338 333 331 334 330 329 336 335 334 339 340 332 330 331 333 333 330 332 331 328 329 328 325 318 315 307 286 282 283 280 276